[[{"header":{"parameterUnit":"m.s-1","parameterCategory":1,"la1":30.2991,"la2":30.254,"lo1":-89.0895,"lo2":-89.0444,"dy":0.0017,"dx":0.0017,"nx":28,"ny":28,"refTime":"2023-09-27T09:00:00:Z","depth":0,"parameterNumber":2,"parameterNumberName":"U-component_of_WINDS"},"data":[0,0,0,0,0,0,0,0,0,0,0,0,0,0,0,0,0,0,0,0,0,0,0,0,0,0,0,0,0,0,0,0,0,0,0,0,0,0,0,0,0,0,0,0,0,0,0,0,0,0,0,0,0,0,0,0,0,0,-5.0168,-5.0168,0,-5.022,-5.0221,-5.0221,-5.0102,-5.0098,-5.0094,-5.009,-5.0142,-5.0147,-5.0152,0,0,0,0,0,0,0,0,0,0,0,0,0,-4.9963,-4.9967,-5.0168,-5.0169,-5.0169,-5.022,-5.0221,-5.0221,-5.0102,-5.0098,-5.0093,-5.0089,-5.0141,-5.0146,-5.0152,0,0,0,0,0,0,0,0,0,0,0,0,0,-5.0037,-4.9969,-5.0168,-5.0116,-5.0112,-5.022,-5.0221,-5.0222,-5.0103,-5.0097,-5.0092,-5.0086,-5.0139,-5.0146,-5.0153,-5.0314,0,0,-5.0176,-5.0179,0,0,0,0,0,0,0,0,-5.0033,-5.0045,-5.0123,-5.012,-5.0115,-5.0148,-5.0167,-5.0252,-5.0105,-5.0106,-5.009,-5.0084,-5.0149,-5.0155,-5.0177,-5.0316,-5.0318,-5.0176,-5.0181,-5.0184,-5.0186,0,0,0,0,0,0,0,-5.0028,-5.0042,-5.0188,-5.0124,-5.012,-5.0089,-5.0093,-5.0183,-5.0159,-5.0106,-5.0097,-5.0105,-5.0146,-5.0171,-5.0178,-5.0319,-5.0176,-5.0183,-5.0187,-5.019,-5.0591,-5.0597,0,0,0,0,0,0,-5.003,-5.0038,-5.0187,-5.019,-5.0059,-5.0098,-5.0102,-5.0144,-5.0158,-5.0154,-5.011,-5.0099,-5.0161,-5.0169,-5.0179,-5.0368,-5.0184,-5.0191,-5.0195,-5.0585,-5.0593,-5.0599,0,0,0,0,0,0,-5.0026,-5.0044,-5.0185,-5.0112,-5.0127,-5.0107,-5.0155,-5.0148,-5.0172,-5.0161,-5.0156,-5.014,-5.0156,-5.0169,-5.0281,-5.0368,-5.0194,-5.0201,-5.0578,-5.0587,-5.0596,-5.0747,0,0,0,0,0,0,-5.002,-5.0043,-5.0105,-5.0114,-5.0132,-5.0287,-5.016,-5.0153,-5.0186,-5.0172,-5.0188,-5.0185,-5.0153,-5.0271,-5.0288,-5.0375,-5.0207,-5.057,-5.0582,-5.0593,-5.0734,-5.076,-5.0783,0,0,0,0,0,-5.0014,-5.0145,-5.0109,-5.0127,-5.0208,-5.0292,-5.0302,-5.0263,-5.0193,-5.0254,-5.0247,-5.0184,-5.0355,-5.0283,-5.0302,-5.0392,-5.0564,-5.0579,-5.0592,-5.0723,-5.0755,-5.0782,0,0,0,0,0,0,-5.0146,-5.0145,-5.0105,-5.0243,-5.0269,-5.0272,-5.0348,-5.0298,-5.0344,-5.0329,-5.0278,-5.0283,-5.0405,-5.0409,-5.0329,-5.0548,-5.0448,-5.0466,-5.0541,-5.0571,-5.0595,-5.0592,-5.0213,0,0,0,0,0,-5.0191,-5.026,-5.0255,-5.0378,-5.0393,-5.0369,-5.0404,-5.0371,-5.0396,-5.0406,-5.0406,-5.0432,-5.0491,-5.0531,-5.0585,-5.0734,-5.0735,-5.0805,-5.0829,-5.0849,-5.0866,-5.0945,-5.0976,-5.0645,-5.0645,-5.0645,0,0,-5.0285,-5.0294,-5.034,-5.0405,-5.0421,-5.0493,-5.0378,-5.0459,-5.0512,-5.0417,-5.0524,-5.0526,-5.055,-5.0682,-5.074,-5.0689,-5.0958,-5.0867,-5.0883,-5.0889,-5.0963,-5.0994,-5.1022,-5.0655,-5.0653,-5.0651,0,0,-5.0494,-5.0507,-5.0611,-5.0629,-5.0655,-5.0638,-5.0663,-5.0674,-5.0671,-5.0777,-5.0708,-5.0769,-5.0873,-5.0893,-5.0917,-5.1134,-5.1078,-5.1152,-5.1279,-5.1357,-5.1383,-5.1406,-5.1484,-5.1512,-5.1169,-5.1169,-5.117,0,-5.0608,-5.0714,-5.067,-5.0756,-5.0787,-5.0705,-5.0809,-5.0829,-5.0871,-5.0893,-5.0836,-5.0964,-5.0975,-5.111,-5.1163,-5.1185,-5.1212,-5.1151,-5.1383,-5.1406,-5.1426,-5.15,-5.1529,-5.1178,-5.1177,-5.1176,-5.1175,0,-5.0853,-5.0928,-5.1008,-5.1052,-5.1091,-5.1186,-5.1155,-5.12,-5.1164,-5.1153,-5.1262,-5.1272,-5.1327,-5.1356,-5.1322,-5.1487,-5.1455,-5.1392,-5.129,-5.1468,-5.1536,-5.1564,-5.1191,-5.1188,-5.1185,-5.1183,0,0,-5.1147,-5.1165,-5.1195,-5.1214,-5.1236,-5.1293,-5.1383,-5.1437,-5.1477,-5.1508,-5.1583,-5.1672,-5.1614,-5.1641,-5.1608,-5.1676,-5.1848,-5.1604,-5.1604,-5.165,-5.203,-5.2079,-5.2112,-5.181,-5.1815,-5.182,-5.2028,0,-5.1354,-5.1511,-5.1474,-5.1628,-5.1697,-5.162,-5.1698,-5.1721,-5.1712,-5.1769,-5.1759,-5.1823,-5.1741,-5.1757,-5.1821,-5.1813,-5.1923,-5.1797,-5.1879,-5.1883,-5.1877,-5.2147,-5.2199,-5.2395,-5.2055,-5.2059,-5.2062,0,-5.1617,-5.1659,-5.1821,-5.1832,-5.1859,-5.1931,-5.1977,-5.2032,-5.2055,-5.2044,-5.2075,-5.2029,-5.2118,-5.2015,-5.2137,-5.2052,-5.2083,-5.2085,-5.2091,-5.2098,-5.1984,-5.2162,-5.2457,-5.2487,-5.2104,-5.21,-5.2097,0,-5.1816,-5.1913,-5.2022,-5.2041,-5.2056,-5.2108,-5.2117,-5.2134,-5.2169,-5.2209,-5.2231,-5.2281,-5.2309,-5.2348,-5.2317,-5.2245,-5.2444,-5.2338,-5.2438,-5.2439,-5.2484,-5.2482,-5.2789,-5.2503,-5.2503,-5.2502,-5.2501,0,-5.2051,-5.2153,-5.2112,-5.218,-5.2292,-5.2247,-5.2359,-5.2359,-5.2375,-5.2441,-5.2376,-5.2439,-5.2393,-5.2452,-5.2427,-5.2532,-5.2545,-5.2539,-5.2531,-5.2545,-5.2546,-5.2565,-5.2551,-5.251,-5.2508,-5.2507,-5.2505,0,-5.2293,-5.2269,-5.2384,-5.2389,-5.2393,-5.2475,-5.2479,-5.2541,-5.2528,-5.2612,-5.2629,-5.2609,-5.2675,-5.2646,-5.2716,-5.2699,-5.2834,-5.2808,-5.2827,-5.2821,-5.2922,-5.2913,-5.3253,-5.3295,-5.2981,-5.2984,-5.2987,0,-5.2445,-5.2522,-5.2536,-5.2575,-5.2589,-5.2653,-5.2689,-5.2647,-5.2687,-5.2719,-5.2777,-5.2838,-5.2884,-5.2993,-5.2984,-5.3036,-5.3011,-5.3127,-5.3019,-5.3031,-5.3014,-5.301,-5.3018,-5.3149,-5.3152,-5.3155,-5.3158,0,-5.2718,-5.2702,-5.2756,-5.2806,-5.285,-5.2887,-5.2919,-5.2955,-5.2915,-5.2962,-5.3029,-5.3065,-5.3136,-5.3197,-5.3243,-5.3251,-5.3199,-5.3192,-5.3217,-5.3233,-5.3241,-5.3239,-5.2887,-5.3184,-5.3182,-5.318,-5.3178,-5.3177,-5.292,-5.2984,-5.3004,-5.3066,-5.3086,-5.3117,-5.3176,-5.317,-5.3225,-5.328,-5.3252,-5.333,-5.335,-5.3408,-5.3423,-5.3483,-5.3438,-5.3475,-5.3485,-5.3495,-5.3508,-5.3231,-5.3491,-5.349,-5.349,-5.3489,-5.3488,0,-5.3189,-5.3198,-5.3256,-5.3302,-5.3351,-5.3297,-5.3329,-5.3373,-5.3443,-5.3466,-5.3513,-5.359,-5.3649,-5.3644,-5.3698,-5.3747,-5.3725,-5.3763,-5.3759,-5.3762,-5.3545,-5.3518,-5.3781,-5.378,-5.378,-5.378,-5.378,-5.378,-5.3336,-5.3443,-5.343,-5.3545,-5.3553,-5.3629,-5.3652,-5.3681,-5.3699,-5.3788,-5.3837,-5.3834,-5.3846,-5.39,-5.3952,-5.3949,-5.3972,-5.402,-5.4008,-5.3806,-5.3777,-5.375,-5.3724,-5.4025,-5.4025,-5.422,-5.4221,-5.4223]},{"header":{"parameterUnit":"m.s-1","parameterCategory":1,"la1":30.2991,"la2":30.254,"lo1":-89.0895,"lo2":-89.0444,"dy":0.0017,"dx":0.0017,"nx":28,"ny":28,"refTime":"2023-09-27T09:00:00:Z","depth":0,"parameterNumber":3,"parameterNumberName":"V-component_of_WINDS"},"data":[0,0,0,0,0,0,0,0,0,0,0,0,0,0,0,0,0,0,0,0,0,0,0,0,0,0,0,0,0,0,0,0,0,0,0,0,0,0,0,0,0,0,0,0,0,0,0,0,0,0,0,0,0,0,0,0,0,0,-3.4913,-3.4913,0,-3.4942,-3.4942,-3.4943,-3.4889,-3.4887,-3.4886,-3.4884,-3.4912,-3.4915,-3.4917,0,0,0,0,0,0,0,0,0,0,0,0,0,-3.4808,-3.481,-3.4913,-3.4913,-3.4914,-3.4942,-3.4942,-3.4943,-3.4889,-3.4887,-3.4885,-3.4883,-3.4912,-3.4914,-3.4917,0,0,0,0,0,0,0,0,0,0,0,0,0,-3.4847,-3.4811,-3.4913,-3.489,-3.4889,-3.4942,-3.4942,-3.4943,-3.489,-3.4887,-3.4885,-3.4882,-3.4911,-3.4914,-3.4918,-3.4994,0,0,-3.4929,-3.493,0,0,0,0,0,0,0,0,-3.4845,-3.4851,-3.4893,-3.4892,-3.489,-3.4909,-3.4916,-3.496,-3.4891,-3.4889,-3.4884,-3.4881,-3.4913,-3.4917,-3.4928,-3.4995,-3.4996,-3.4929,-3.4931,-3.4933,-3.4934,0,0,0,0,0,0,0,-3.4842,-3.4849,-3.4924,-3.4894,-3.4892,-3.4878,-3.4881,-3.4924,-3.4916,-3.4889,-3.4885,-3.489,-3.4912,-3.4925,-3.4928,-3.4997,-3.4929,-3.4932,-3.4935,-3.4936,-3.5125,-3.5128,0,0,0,0,0,0,-3.4843,-3.4848,-3.4923,-3.4925,-3.4861,-3.4882,-3.4885,-3.4906,-3.4915,-3.4914,-3.4892,-3.4887,-3.492,-3.4924,-3.4929,-3.5017,-3.4933,-3.4936,-3.4938,-3.5122,-3.5126,-3.5129,0,0,0,0,0,0,-3.4841,-3.485,-3.4922,-3.4885,-3.4893,-3.4887,-3.4911,-3.4908,-3.492,-3.4917,-3.4916,-3.4907,-3.4918,-3.4924,-3.4978,-3.5018,-3.4938,-3.4941,-3.5119,-3.5124,-3.5127,-3.5195,0,0,0,0,0,0,-3.4838,-3.485,-3.4879,-3.4886,-3.4896,-3.4972,-3.4913,-3.491,-3.4927,-3.4921,-3.4931,-3.493,-3.4916,-3.4973,-3.4981,-3.5021,-3.4944,-3.5115,-3.5121,-3.5126,-3.519,-3.5202,-3.5212,0,0,0,0,0,-3.4834,-3.4897,-3.4881,-3.4891,-3.4933,-3.4974,-3.4979,-3.4963,-3.493,-3.4959,-3.4957,-3.4929,-3.5012,-3.4978,-3.4988,-3.503,-3.5113,-3.5119,-3.5126,-3.5185,-3.5199,-3.5211,0,0,0,0,0,0,-3.4895,-3.4898,-3.488,-3.4947,-3.4961,-3.4965,-3.5001,-3.4979,-3.5002,-3.4995,-3.4973,-3.4976,-3.5034,-3.5037,-3.5,-3.5102,-3.5057,-3.5065,-3.5098,-3.5112,-3.5123,-3.5121,-3.4947,0,0,0,0,0,-3.4916,-3.495,-3.4951,-3.501,-3.5018,-3.5008,-3.5026,-3.5012,-3.5025,-3.503,-3.5032,-3.5045,-3.5073,-3.5093,-3.5119,-3.519,-3.519,-3.5223,-3.5234,-3.5243,-3.525,-3.5286,-3.53,-3.515,-3.515,-3.515,0,0,-3.4961,-3.4966,-3.4989,-3.5022,-3.5031,-3.5066,-3.5014,-3.5053,-3.5078,-3.5036,-3.5087,-3.5088,-3.5101,-3.5163,-3.5191,-3.5168,-3.5292,-3.5251,-3.5258,-3.5261,-3.5294,-3.5309,-3.5321,-3.5154,-3.5154,-3.5153,0,0,-3.5059,-3.5067,-3.5117,-3.5126,-3.514,-3.5133,-3.5145,-3.5152,-3.5152,-3.5202,-3.5171,-3.52,-3.525,-3.526,-3.5272,-3.5372,-3.5347,-3.5381,-3.5439,-3.5474,-3.5486,-3.5496,-3.5531,-3.5544,-3.5389,-3.5389,-3.5389,0,-3.5112,-3.5164,-3.5145,-3.5186,-3.5201,-3.5164,-3.5213,-3.5223,-3.5245,-3.5256,-3.523,-3.5291,-3.5297,-3.536,-3.5384,-3.5395,-3.5407,-3.538,-3.5486,-3.5496,-3.5505,-3.5538,-3.5552,-3.5393,-3.5392,-3.5392,-3.5392,0,-3.5228,-3.5264,-3.5302,-3.5324,-3.5343,-3.5388,-3.5375,-3.5396,-3.538,-3.5375,-3.5426,-3.5432,-3.5459,-3.5472,-3.5457,-3.5533,-3.5518,-3.549,-3.5443,-3.5524,-3.5555,-3.5567,-3.5399,-3.5397,-3.5396,-3.5395,0,0,-3.5366,-3.5376,-3.539,-3.5399,-3.541,-3.5437,-3.548,-3.5506,-3.5524,-3.5539,-3.5574,-3.5616,-3.5589,-3.5603,-3.5588,-3.5619,-3.5696,-3.5586,-3.5586,-3.5606,-3.5779,-3.58,-3.5815,-3.5679,-3.5682,-3.5684,-3.5777,0,-3.5463,-3.5537,-3.552,-3.5593,-3.5625,-3.5589,-3.5626,-3.5637,-3.5633,-3.5659,-3.5655,-3.5685,-3.5648,-3.5655,-3.5684,-3.5681,-3.5731,-3.5674,-3.571,-3.5712,-3.5708,-3.5831,-3.5854,-3.5942,-3.5789,-3.5791,-3.5793,0,-3.5586,-3.5606,-3.5682,-3.5687,-3.5699,-3.5733,-3.5754,-3.578,-3.579,-3.5785,-3.58,-3.5779,-3.5819,-3.5772,-3.5828,-3.5789,-3.5803,-3.5804,-3.5806,-3.5809,-3.5757,-3.5836,-3.597,-3.5983,-3.5811,-3.581,-3.5809,0,-3.5679,-3.5724,-3.5775,-3.5783,-3.5791,-3.5815,-3.5819,-3.5827,-3.5843,-3.5861,-3.5871,-3.5893,-3.5906,-3.5924,-3.5909,-3.5876,-3.5966,-3.5918,-3.5962,-3.5963,-3.5983,-3.5982,-3.612,-3.5993,-3.5992,-3.5992,-3.5992,0,-3.5788,-3.5836,-3.5816,-3.5848,-3.5899,-3.5879,-3.593,-3.5929,-3.5937,-3.5966,-3.5937,-3.5965,-3.5944,-3.597,-3.5959,-3.6005,-3.6012,-3.6008,-3.6004,-3.6011,-3.6011,-3.6019,-3.6013,-3.5996,-3.5995,-3.5994,-3.5994,0,-3.59,-3.5889,-3.5942,-3.5944,-3.5946,-3.5983,-3.5984,-3.6013,-3.6006,-3.6044,-3.6052,-3.6042,-3.6071,-3.6058,-3.6089,-3.6081,-3.6141,-3.6129,-3.6138,-3.6134,-3.6179,-3.6175,-3.6327,-3.6346,-3.6207,-3.6208,-3.6209,0,-3.5971,-3.6006,-3.6012,-3.603,-3.6036,-3.6065,-3.6081,-3.6061,-3.6079,-3.6093,-3.6119,-3.6145,-3.6166,-3.6214,-3.6209,-3.6232,-3.622,-3.6272,-3.6223,-3.6228,-3.622,-3.6218,-3.6221,-3.6282,-3.6283,-3.6285,-3.6286,0,-3.6097,-3.609,-3.6114,-3.6136,-3.6155,-3.6172,-3.6185,-3.6201,-3.6182,-3.6203,-3.6233,-3.6248,-3.6279,-3.6305,-3.6325,-3.6328,-3.6304,-3.6301,-3.6312,-3.6319,-3.6322,-3.632,-3.6164,-3.6298,-3.6296,-3.6296,-3.6295,-3.6294,-3.619,-3.6219,-3.6227,-3.6255,-3.6263,-3.6276,-3.6302,-3.6299,-3.6323,-3.6347,-3.6333,-3.6368,-3.6375,-3.6399,-3.6406,-3.6431,-3.6411,-3.6427,-3.6431,-3.6436,-3.6441,-3.6318,-3.6435,-3.6434,-3.6434,-3.6434,-3.6434,0,-3.6314,-3.6317,-3.6342,-3.6362,-3.6383,-3.6358,-3.6371,-3.6391,-3.6421,-3.6431,-3.6451,-3.6484,-3.6509,-3.6505,-3.6528,-3.6549,-3.6538,-3.6556,-3.6554,-3.6555,-3.6459,-3.6447,-3.6564,-3.6564,-3.6564,-3.6564,-3.6564,-3.6564,-3.6381,-3.6429,-3.6422,-3.6473,-3.6475,-3.6508,-3.6518,-3.6529,-3.6537,-3.6575,-3.6595,-3.6593,-3.6597,-3.6619,-3.6641,-3.6639,-3.6648,-3.667,-3.6664,-3.6575,-3.6562,-3.6549,-3.6538,-3.6672,-3.6672,-3.6757,-3.6758,-3.6759]}]]